Time,TemperatureF,DewpointF,PressureIn,WindDirection,WindDirectionDegrees,WindSpeedMPH,WindSpeedGustMPH,Humidity,HourlyPrecipIn,Conditions,Clouds,dailyrainin,SoftwareType,DateUTC
2013-04-02 00:01:00,50.4,46.1,30.17,SW,219,5.0,5.0,85,0.00,,,0.00,Wunderground v.1.15,2013-04-02 07:01:00,
2013-04-02 00:07:00,50.4,46.1,30.17,West,276,4.0,6.0,85,0.00,,,0.00,Wunderground v.1.15,2013-04-02 07:07:00,
2013-04-02 00:13:00,50.5,46.2,30.17,WSW,252,4.0,6.0,85,0.00,,,0.00,Wunderground v.1.15,2013-04-02 07:13:00,
2013-04-02 00:18:00,50.4,46.4,30.17,West,275,5.0,8.0,86,0.00,,,0.00,Wunderground v.1.15,2013-04-02 07:18:00,
2013-04-02 00:24:00,50.4,46.4,30.18,West,276,4.0,7.0,86,0.00,,,0.00,Wunderground v.1.15,2013-04-02 07:24:00,
2013-04-02 00:29:00,50.5,46.5,30.18,SW,215,3.0,7.0,86,0.00,,,0.00,Wunderground v.1.15,2013-04-02 07:29:00,
2013-04-02 00:34:00,50.5,46.5,30.18,WSW,239,2.0,3.0,86,0.00,,,0.00,Wunderground v.1.15,2013-04-02 07:34:00,
2013-04-02 00:39:00,50.5,46.5,30.18,WSW,254,2.0,4.0,86,0.00,,,0.00,Wunderground v.1.15,2013-04-02 07:39:00,
2013-04-02 00:44:00,50.5,46.5,30.18,SW,226,3.0,6.0,86,0.00,,,0.00,Wunderground v.1.15,2013-04-02 07:44:00,
2013-04-02 00:50:00,50.5,46.5,30.18,SW,229,3.0,6.0,86,0.00,,,0.00,Wunderground v.1.15,2013-04-02 07:50:00,
2013-04-02 00:55:00,50.5,46.5,30.18,WSW,241,3.0,6.0,86,0.00,,,0.00,Wunderground v.1.15,2013-04-02 07:55:00,
2013-04-02 01:01:00,50.5,46.5,30.18,SW,223,3.0,4.0,86,0.00,,,0.00,Wunderground v.1.15,2013-04-02 08:01:00,
2013-04-02 01:06:00,50.5,46.5,30.18,SW,229,3.0,4.0,86,0.00,,,0.00,Wunderground v.1.15,2013-04-02 08:06:00,
2013-04-02 01:12:00,50.5,46.5,30.19,SW,229,1.0,2.0,86,0.00,,,0.00,Wunderground v.1.15,2013-04-02 08:12:00,
2013-04-02 01:17:00,50.5,46.8,30.19,SW,229,1.0,3.0,87,0.00,,,0.00,Wunderground v.1.15,2013-04-02 08:17:00,
2013-04-02 01:23:00,50.5,46.8,30.19,SW,216,2.0,3.0,87,0.00,,,0.00,Wunderground v.1.15,2013-04-02 08:23:00,
2013-04-02 01:29:00,50.5,46.8,30.19,WSW,243,3.0,8.0,87,0.00,,,0.00,Wunderground v.1.15,2013-04-02 08:29:00,
2013-04-02 01:35:00,50.5,46.8,30.19,WSW,244,3.0,5.0,87,0.00,,,0.00,Wunderground v.1.15,2013-04-02 08:35:00,
2013-04-02 01:40:00,50.5,46.8,30.19,SW,233,3.0,6.0,87,0.00,,,0.00,Wunderground v.1.15,2013-04-02 08:40:00,
2013-04-02 01:45:00,50.5,46.8,30.19,SSW,192,4.0,4.0,87,0.00,,,0.00,Wunderground v.1.15,2013-04-02 08:45:00,
2013-04-02 01:51:00,50.4,46.7,30.19,SW,222,4.0,4.0,87,0.00,,,0.00,Wunderground v.1.15,2013-04-02 08:51:00,
2013-04-02 01:57:00,50.4,46.7,30.19,SW,222,1.0,4.0,87,0.00,,,0.00,Wunderground v.1.15,2013-04-02 08:57:00,
2013-04-02 02:02:00,50.4,46.7,30.19,SW,222,1.0,2.0,87,0.00,,,0.00,Wunderground v.1.15,2013-04-02 09:02:00,
2013-04-02 02:08:00,50.4,46.7,30.19,West,264,1.0,3.0,87,0.00,,,0.00,Wunderground v.1.15,2013-04-02 09:08:00,
2013-04-02 02:13:00,50.4,46.7,30.19,SW,228,2.0,5.0,87,0.00,,,0.00,Wunderground v.1.15,2013-04-02 09:13:00,
2013-04-02 02:18:00,50.4,46.7,30.19,WSW,245,3.0,8.0,87,0.00,,,0.00,Wunderground v.1.15,2013-04-02 09:18:00,
2013-04-02 02:24:00,50.4,46.7,30.19,WSW,238,3.0,3.0,87,0.00,,,0.00,Wunderground v.1.15,2013-04-02 09:24:00,
2013-04-02 02:29:00,50.4,46.7,30.19,WSW,241,2.0,3.0,87,0.00,,,0.00,Wunderground v.1.15,2013-04-02 09:29:00,
2013-04-02 02:35:00,50.3,46.9,30.19,WSW,240,1.0,2.0,88,0.00,,,0.00,Wunderground v.1.15,2013-04-02 09:35:00,
2013-04-02 02:40:00,50.3,46.9,30.19,NW,310,1.0,3.0,88,0.00,,,0.00,Wunderground v.1.15,2013-04-02 09:40:00,
2013-04-02 02:45:00,50.3,46.6,30.20,West,267,2.0,4.0,87,0.00,,,0.00,Wunderground v.1.15,2013-04-02 09:45:00,
2013-04-02 02:50:00,50.3,46.9,30.19,West,268,2.0,4.0,88,0.00,,,0.00,Wunderground v.1.15,2013-04-02 09:50:00,
2013-04-02 02:56:00,50.2,46.5,30.19,West,273,1.0,2.0,87,0.00,,,0.00,Wunderground v.1.15,2013-04-02 09:56:00,
2013-04-02 03:02:00,50.1,46.4,30.20,West,273,1.0,1.0,87,0.00,,,0.00,Wunderground v.1.15,2013-04-02 10:02:00,
2013-04-02 03:07:00,50.1,46.7,30.19,West,273,0.0,2.0,88,0.00,,,0.00,Wunderground v.1.15,2013-04-02 10:07:00,
2013-04-02 03:13:00,50.1,46.7,30.19,West,273,0.0,0.0,88,0.00,,,0.00,Wunderground v.1.15,2013-04-02 10:13:00,
2013-04-02 03:18:00,50.1,46.7,30.19,West,273,0.0,1.0,88,0.00,,,0.00,Wunderground v.1.15,2013-04-02 10:18:00,
2013-04-02 03:24:00,50.0,46.6,30.20,West,273,0.0,1.0,88,0.00,,,0.00,Wunderground v.1.15,2013-04-02 10:24:00,
2013-04-02 03:29:00,50.0,46.6,30.19,West,273,0.0,1.0,88,0.00,,,0.00,Wunderground v.1.15,2013-04-02 10:29:00,
2013-04-02 03:35:00,49.9,46.5,30.19,West,273,0.0,0.0,88,0.00,,,0.00,Wunderground v.1.15,2013-04-02 10:35:00,
2013-04-02 03:41:00,49.8,46.4,30.19,West,273,0.0,0.0,88,0.00,,,0.00,Wunderground v.1.15,2013-04-02 10:41:00,
2013-04-02 03:46:00,49.8,46.7,30.19,West,273,0.0,0.0,89,0.00,,,0.00,Wunderground v.1.15,2013-04-02 10:46:00,
2013-04-02 03:52:00,49.8,46.7,30.19,West,273,0.0,0.0,89,0.00,,,0.00,Wunderground v.1.15,2013-04-02 10:52:00,
2013-04-02 03:57:00,49.7,46.6,30.19,West,273,0.0,0.0,89,0.00,,,0.00,Wunderground v.1.15,2013-04-02 10:57:00,
2013-04-02 04:02:00,49.7,46.6,30.20,West,273,0.0,0.0,89,0.00,,,0.00,Wunderground v.1.15,2013-04-02 11:02:00,
2013-04-02 04:10:00,49.7,46.6,30.20,West,273,0.0,0.0,89,0.00,,,0.00,Wunderground v.1.15,2013-04-02 11:10:00,
2013-04-02 04:15:00,49.7,46.6,30.19,West,273,0.0,0.0,89,0.00,,,0.00,Wunderground v.1.15,2013-04-02 11:15:00,
2013-04-02 04:20:00,49.7,46.6,30.19,West,273,0.0,0.0,89,0.00,,,0.00,Wunderground v.1.15,2013-04-02 11:20:00,
2013-04-02 04:26:00,49.7,46.9,30.19,West,273,0.0,0.0,90,0.00,,,0.00,Wunderground v.1.15,2013-04-02 11:26:00,
2013-04-02 04:32:00,49.7,46.9,30.19,West,273,0.0,0.0,90,0.00,,,0.00,Wunderground v.1.15,2013-04-02 11:32:00,
2013-04-02 04:37:00,49.6,46.8,30.19,West,273,0.0,0.0,90,0.00,,,0.00,Wunderground v.1.15,2013-04-02 11:37:00,
2013-04-02 04:43:00,49.6,46.8,30.19,West,273,0.0,0.0,90,0.00,,,0.00,Wunderground v.1.15,2013-04-02 11:43:00,
2013-04-02 04:49:00,49.6,46.8,30.19,West,273,0.0,0.0,90,0.00,,,0.00,Wunderground v.1.15,2013-04-02 11:49:00,
2013-04-02 04:54:00,49.6,46.8,30.19,West,273,0.0,0.0,90,0.00,,,0.00,Wunderground v.1.15,2013-04-02 11:54:00,
2013-04-02 04:59:00,49.6,46.8,30.19,West,273,0.0,0.0,90,0.00,,,0.00,Wunderground v.1.15,2013-04-02 11:59:00,
2013-04-02 05:05:00,49.6,46.8,30.19,West,276,0.0,3.0,90,0.00,,,0.00,Wunderground v.1.15,2013-04-02 12:05:00,
2013-04-02 05:10:00,49.5,46.7,30.19,West,276,1.0,3.0,90,0.00,,,0.00,Wunderground v.1.15,2013-04-02 12:10:00,
2013-04-02 05:15:00,49.5,46.7,30.19,West,276,1.0,3.0,90,0.00,,,0.00,Wunderground v.1.15,2013-04-02 12:15:00,
2013-04-02 05:22:00,49.4,46.6,30.19,WNW,301,1.0,1.0,90,0.00,,,0.00,Wunderground v.1.15,2013-04-02 12:22:00,
2013-04-02 05:27:00,49.4,46.6,30.19,WNW,297,1.0,2.0,90,0.00,,,0.00,Wunderground v.1.15,2013-04-02 12:27:00,
2013-04-02 05:33:00,49.3,46.8,30.20,WNW,298,1.0,3.0,91,0.00,,,0.00,Wunderground v.1.15,2013-04-02 12:33:00,
2013-04-02 05:39:00,49.1,46.6,30.19,WNW,297,1.0,3.0,91,0.00,,,0.00,Wunderground v.1.15,2013-04-02 12:39:00,
2013-04-02 05:44:00,49.1,46.6,30.19,WNW,297,1.0,1.0,91,0.00,,,0.00,Wunderground v.1.15,2013-04-02 12:44:00,
2013-04-02 05:49:00,49.0,46.5,30.19,WNW,297,0.0,1.0,91,0.00,,,0.00,Wunderground v.1.15,2013-04-02 12:49:00,
2013-04-02 05:55:00,48.9,46.4,30.19,WNW,297,0.0,0.0,91,0.00,,,0.00,Wunderground v.1.15,2013-04-02 12:55:00,
2013-04-02 06:00:00,48.8,46.6,30.19,WNW,297,0.0,0.0,92,0.00,,,0.00,Wunderground v.1.15,2013-04-02 13:00:00,
2013-04-02 06:05:00,48.7,46.2,30.19,WNW,297,0.0,0.0,91,0.00,,,0.00,Wunderground v.1.15,2013-04-02 13:05:00,
2013-04-02 06:10:00,48.7,46.5,30.19,WNW,297,0.0,0.0,92,0.00,,,0.00,Wunderground v.1.15,2013-04-02 13:10:00,
2013-04-02 06:16:00,48.6,46.4,30.19,WNW,297,0.0,0.0,92,0.00,,,0.00,Wunderground v.1.15,2013-04-02 13:16:00,
2013-04-02 06:21:00,48.6,46.4,30.19,WNW,297,0.0,0.0,92,0.00,,,0.00,Wunderground v.1.15,2013-04-02 13:21:00,
2013-04-02 06:26:00,48.5,46.3,30.20,WNW,297,0.0,1.0,92,0.00,,,0.00,Wunderground v.1.15,2013-04-02 13:26:00,
2013-04-02 06:32:00,48.5,46.3,30.20,WNW,297,0.0,0.0,92,0.00,,,0.00,Wunderground v.1.15,2013-04-02 13:32:00,
2013-04-02 06:37:00,48.5,46.3,30.20,WNW,297,0.0,0.0,92,0.00,,,0.00,Wunderground v.1.15,2013-04-02 13:37:00,
2013-04-02 06:43:00,48.5,46.6,30.20,WNW,297,0.0,1.0,93,0.00,,,0.00,Wunderground v.1.15,2013-04-02 13:43:00,
2013-04-02 06:48:00,48.5,46.3,30.20,WNW,297,0.0,1.0,92,0.00,,,0.00,Wunderground v.1.15,2013-04-02 13:48:00,
2013-04-02 06:53:00,48.4,46.5,30.20,WNW,296,1.0,3.0,93,0.00,,,0.00,Wunderground v.1.15,2013-04-02 13:53:00,
2013-04-02 06:58:00,48.4,46.2,30.20,WNW,296,1.0,3.0,92,0.00,,,0.00,Wunderground v.1.15,2013-04-02 13:58:00,
2013-04-02 07:03:00,48.4,46.5,30.20,West,267,1.0,1.0,93,0.00,,,0.00,Wunderground v.1.15,2013-04-02 14:03:00,
2013-04-02 07:08:00,48.4,46.5,30.20,West,272,1.0,2.0,93,0.00,,,0.00,Wunderground v.1.15,2013-04-02 14:08:00,
2013-04-02 07:14:00,48.4,46.5,30.20,WSW,248,1.0,2.0,93,0.00,,,0.00,Wunderground v.1.15,2013-04-02 14:14:00,
2013-04-02 07:19:00,48.4,46.5,30.20,WSW,257,2.0,4.0,93,0.00,,,0.00,Wunderground v.1.15,2013-04-02 14:19:00,
2013-04-02 07:25:00,48.4,46.5,30.20,WSW,257,1.0,1.0,93,0.00,,,0.00,Wunderground v.1.15,2013-04-02 14:25:00,
2013-04-02 07:30:00,48.3,46.4,30.20,WSW,245,0.0,1.0,93,0.00,,,0.00,Wunderground v.1.15,2013-04-02 14:30:00,
2013-04-02 07:35:00,48.3,46.7,30.20,WSW,245,0.0,2.0,94,0.00,,,0.00,Wunderground v.1.15,2013-04-02 14:35:00,
2013-04-02 07:41:00,48.3,46.7,30.20,WSW,245,0.0,2.0,94,0.00,,,0.00,Wunderground v.1.15,2013-04-02 14:41:00,
2013-04-02 07:46:00,48.3,46.7,30.20,WSW,245,0.0,2.0,94,0.00,,,0.00,Wunderground v.1.15,2013-04-02 14:46:00,
2013-04-02 07:52:00,48.2,46.6,30.20,WSW,245,0.0,2.0,94,0.00,,,0.00,Wunderground v.1.15,2013-04-02 14:52:00,
2013-04-02 07:57:00,48.3,46.7,30.20,WSW,244,1.0,4.0,94,0.00,,,0.00,Wunderground v.1.15,2013-04-02 14:57:00,
2013-04-02 08:02:00,48.3,46.7,30.20,WSW,244,1.0,1.0,94,0.00,,,0.00,Wunderground v.1.15,2013-04-02 15:02:00,
2013-04-02 08:08:00,48.2,46.6,30.20,WSW,244,1.0,2.0,94,0.00,,,0.00,Wunderground v.1.15,2013-04-02 15:08:00,
2013-04-02 08:13:00,48.2,46.6,30.20,SW,224,1.0,3.0,94,0.00,,,0.00,Wunderground v.1.15,2013-04-02 15:13:00,
2013-04-02 08:18:00,48.1,46.5,30.20,SW,224,2.0,3.0,94,0.00,,,0.00,Wunderground v.1.15,2013-04-02 15:18:00,
2013-04-02 08:24:00,48.1,46.7,30.20,SW,225,1.0,2.0,95,0.00,,,0.00,Wunderground v.1.15,2013-04-02 15:24:00,
2013-04-02 08:30:00,48.2,46.8,30.20,SW,225,1.0,2.0,95,0.00,,,0.00,Wunderground v.1.15,2013-04-02 15:30:00,
2013-04-02 08:36:00,48.3,46.9,30.20,SW,225,0.0,0.0,95,0.00,,,0.00,Wunderground v.1.15,2013-04-02 15:36:00,
2013-04-02 08:41:00,48.3,46.9,30.20,SW,225,0.0,0.0,95,0.00,,,0.00,Wunderground v.1.15,2013-04-02 15:41:00,
2013-04-02 08:47:00,48.2,46.6,30.20,SW,225,0.0,0.0,94,0.00,,,0.00,Wunderground v.1.15,2013-04-02 15:47:00,
2013-04-02 08:53:00,48.2,46.6,30.20,SW,225,0.0,0.0,94,0.00,,,0.00,Wunderground v.1.15,2013-04-02 15:53:00,
2013-04-02 08:58:00,48.3,46.7,30.20,SW,225,0.0,0.0,94,0.00,,,0.00,Wunderground v.1.15,2013-04-02 15:58:00,
2013-04-02 09:04:00,48.4,47.0,30.20,SW,225,0.0,0.0,95,0.00,,,0.00,Wunderground v.1.15,2013-04-02 16:04:00,
2013-04-02 09:10:00,48.5,47.1,30.20,SW,225,0.0,2.0,95,0.00,,,0.00,Wunderground v.1.15,2013-04-02 16:10:00,
2013-04-02 09:15:00,48.5,46.9,30.21,SW,222,0.0,1.0,94,0.00,,,0.00,Wunderground v.1.15,2013-04-02 16:15:00,
2013-04-02 09:20:00,48.5,46.9,30.21,SW,222,0.0,1.0,94,0.00,,,0.00,Wunderground v.1.15,2013-04-02 16:20:00,
2013-04-02 09:25:00,48.7,47.3,30.20,SW,222,0.0,0.0,95,0.00,,,0.00,Wunderground v.1.15,2013-04-02 16:25:00,
2013-04-02 09:30:00,48.7,47.1,30.20,SW,222,0.0,0.0,94,0.00,,,0.00,Wunderground v.1.15,2013-04-02 16:30:00,
2013-04-02 09:36:00,48.8,47.2,30.20,SW,222,0.0,0.0,94,0.00,,,0.00,Wunderground v.1.15,2013-04-02 16:36:00,
2013-04-02 09:41:00,48.9,47.2,30.20,SW,222,0.0,0.0,94,0.00,,,0.00,Wunderground v.1.15,2013-04-02 16:41:00,
2013-04-02 09:47:00,49.0,47.3,30.20,SW,222,0.0,2.0,94,0.00,,,0.00,Wunderground v.1.15,2013-04-02 16:47:00,
2013-04-02 09:52:00,49.1,47.4,30.20,SW,222,0.0,0.0,94,0.00,,,0.00,Wunderground v.1.15,2013-04-02 16:52:00,
2013-04-02 09:57:00,49.1,47.2,30.20,SW,222,0.0,1.0,93,0.00,,,0.00,Wunderground v.1.15,2013-04-02 16:57:00,
2013-04-02 10:02:00,49.2,47.3,30.21,SW,222,0.0,0.0,93,0.00,,,0.00,Wunderground v.1.15,2013-04-02 17:02:00,
2013-04-02 10:08:00,49.3,47.1,30.21,SW,222,0.0,1.0,92,0.00,,,0.00,Wunderground v.1.15,2013-04-02 17:08:00,
2013-04-02 10:13:00,49.4,47.2,30.20,SW,222,0.0,0.0,92,0.00,,,0.00,Wunderground v.1.15,2013-04-02 17:13:00,
2013-04-02 10:18:00,49.5,47.3,30.21,SW,222,0.0,0.0,92,0.00,,,0.00,Wunderground v.1.15,2013-04-02 17:18:00,
2013-04-02 10:25:00,49.6,47.4,30.21,SW,222,0.0,2.0,92,0.00,,,0.00,Wunderground v.1.15,2013-04-02 17:25:00,
2013-04-02 10:31:00,49.7,47.2,30.21,SW,223,1.0,1.0,91,0.00,,,0.00,Wunderground v.1.15,2013-04-02 17:31:00,
2013-04-02 10:36:00,49.8,47.0,30.21,SW,223,1.0,1.0,90,0.00,,,0.00,Wunderground v.1.15,2013-04-02 17:36:00,
2013-04-02 10:42:00,49.9,47.4,30.21,SW,223,0.0,0.0,91,0.00,,,0.00,Wunderground v.1.15,2013-04-02 17:42:00,
2013-04-02 10:49:00,50.0,47.2,30.21,SW,223,0.0,0.0,90,0.00,,,0.00,Wunderground v.1.15,2013-04-02 17:49:00,
2013-04-02 10:55:00,50.1,47.3,30.21,SW,223,0.0,2.0,90,0.00,,,0.00,Wunderground v.1.15,2013-04-02 17:55:00,
2013-04-02 11:00:00,50.3,47.5,30.21,SE,139,1.0,2.0,90,0.00,,,0.00,Wunderground v.1.15,2013-04-02 18:00:00,
2013-04-02 11:07:00,50.3,47.5,30.21,South,183,1.0,3.0,90,0.00,,,0.00,Wunderground v.1.15,2013-04-02 18:07:00,
2013-04-02 11:12:00,50.2,46.8,30.21,South,183,0.0,1.0,88,0.00,,,0.00,Wunderground v.1.15,2013-04-02 18:12:00,
2013-04-02 11:17:00,50.2,47.1,30.21,South,183,0.0,2.0,89,0.00,,,0.00,Wunderground v.1.15,2013-04-02 18:17:00,
2013-04-02 11:24:00,50.3,47.5,30.21,South,183,0.0,0.0,90,0.00,,,0.00,Wunderground v.1.15,2013-04-02 18:24:00,
2013-04-02 11:30:00,50.4,47.6,30.21,South,183,0.0,0.0,90,0.00,,,0.00,Wunderground v.1.15,2013-04-02 18:30:00,
2013-04-02 11:35:00,50.6,47.8,30.21,SSW,197,0.0,3.0,90,0.00,,,0.00,Wunderground v.1.15,2013-04-02 18:35:00,
2013-04-02 11:42:00,50.7,47.6,30.21,SSW,202,0.0,1.0,89,0.00,,,0.00,Wunderground v.1.15,2013-04-02 18:42:00,
2013-04-02 11:47:00,50.8,47.7,30.21,SSW,211,1.0,3.0,89,0.00,,,0.00,Wunderground v.1.15,2013-04-02 18:47:00,
2013-04-02 11:53:00,50.9,47.8,30.21,SSW,213,1.0,3.0,89,0.00,,,0.00,Wunderground v.1.15,2013-04-02 18:53:00,
2013-04-02 11:59:00,51.2,48.1,30.21,West,269,1.0,4.0,89,0.00,,,0.00,Wunderground v.1.15,2013-04-02 18:59:00,
2013-04-02 12:04:00,51.4,48.0,30.21,SW,232,2.0,5.0,88,0.00,,,0.00,Wunderground v.1.15,2013-04-02 19:04:00,
2013-04-02 12:09:00,51.4,48.0,30.21,SW,232,3.0,5.0,88,0.00,,,0.00,Wunderground v.1.15,2013-04-02 19:09:00,
2013-04-02 12:15:00,51.5,48.1,30.21,SW,232,1.0,2.0,88,0.00,,,0.00,Wunderground v.1.15,2013-04-02 19:15:00,
2013-04-02 12:20:00,51.6,47.9,30.21,West,265,1.0,2.0,87,0.00,,,0.00,Wunderground v.1.15,2013-04-02 19:20:00,
2013-04-02 12:25:00,51.7,48.0,30.21,SW,229,2.0,4.0,87,0.00,,,0.00,Wunderground v.1.15,2013-04-02 19:25:00,
2013-04-02 12:31:00,51.7,48.0,30.21,SW,231,3.0,4.0,87,0.00,,,0.00,Wunderground v.1.15,2013-04-02 19:31:00,
2013-04-02 12:36:00,51.7,48.0,30.21,SW,231,2.0,4.0,87,0.00,,,0.00,Wunderground v.1.15,2013-04-02 19:36:00,
2013-04-02 12:41:00,51.6,47.5,30.21,SW,234,1.0,1.0,86,0.00,,,0.00,Wunderground v.1.15,2013-04-02 19:41:00,
2013-04-02 12:47:00,51.6,47.9,30.21,WNW,282,2.0,3.0,87,0.00,,,0.00,Wunderground v.1.15,2013-04-02 19:47:00,
2013-04-02 12:52:00,51.6,47.9,30.21,WNW,293,2.0,2.0,87,0.00,,,0.00,Wunderground v.1.15,2013-04-02 19:52:00,
2013-04-02 12:58:00,51.7,47.6,30.21,WNW,295,1.0,4.0,86,0.00,,,0.00,Wunderground v.1.15,2013-04-02 19:58:00,
2013-04-02 13:04:00,51.7,47.6,30.21,WNW,283,1.0,1.0,86,0.00,,,0.00,Wunderground v.1.15,2013-04-02 20:04:00,
2013-04-02 13:10:00,51.7,48.0,30.21,West,281,0.0,1.0,87,0.00,,,0.00,Wunderground v.1.15,2013-04-02 20:10:00,
2013-04-02 13:15:00,51.9,47.8,30.21,SW,219,1.0,5.0,86,0.00,,,0.00,Wunderground v.1.15,2013-04-02 20:15:00,
2013-04-02 13:21:00,52.1,47.7,30.21,SW,219,1.0,1.0,85,0.00,,,0.00,Wunderground v.1.15,2013-04-02 20:21:00,
2013-04-02 13:28:00,52.2,47.2,30.21,SSW,213,2.0,6.0,83,0.00,,,0.00,Wunderground v.1.15,2013-04-02 20:28:00,
2013-04-02 13:33:00,52.2,47.5,30.21,SW,215,2.0,5.0,84,0.00,,,0.00,Wunderground v.1.15,2013-04-02 20:33:00,
2013-04-02 13:38:00,52.3,47.0,30.21,South,190,2.0,6.0,82,0.00,,,0.00,Wunderground v.1.15,2013-04-02 20:38:00,
2013-04-02 13:44:00,52.2,47.2,30.21,SW,221,2.0,3.0,83,0.00,,,0.00,Wunderground v.1.15,2013-04-02 20:44:00,
2013-04-02 13:50:00,52.3,47.6,30.21,SW,235,2.0,4.0,84,0.00,,,0.00,Wunderground v.1.15,2013-04-02 20:50:00,
2013-04-02 13:55:00,52.4,47.4,30.21,South,180,2.0,2.0,83,0.00,,,0.00,Wunderground v.1.15,2013-04-02 20:55:00,
2013-04-02 14:00:00,52.5,47.5,30.21,South,187,1.0,4.0,83,0.00,,,0.00,Wunderground v.1.15,2013-04-02 21:00:00,
2013-04-02 14:06:00,52.9,47.9,30.21,South,190,1.0,3.0,83,0.00,,,0.00,Wunderground v.1.15,2013-04-02 21:06:00,
2013-04-02 14:11:00,53.0,47.7,30.21,South,171,1.0,2.0,82,0.00,,,0.00,Wunderground v.1.15,2013-04-02 21:11:00,
2013-04-02 14:17:00,53.1,47.7,30.21,SE,124,1.0,4.0,82,0.00,,,0.00,Wunderground v.1.15,2013-04-02 21:17:00,
2013-04-02 14:23:00,53.2,48.2,30.21,SSW,202,0.0,3.0,83,0.00,,,0.00,Wunderground v.1.15,2013-04-02 21:23:00,
2013-04-02 14:28:00,53.2,47.8,30.21,SW,219,1.0,6.0,82,0.00,,,0.00,Wunderground v.1.15,2013-04-02 21:28:00,
2013-04-02 14:33:00,53.3,48.3,30.21,SW,225,1.0,2.0,83,0.00,,,0.00,Wunderground v.1.15,2013-04-02 21:33:00,
2013-04-02 14:39:00,53.4,47.7,30.21,SW,225,0.0,2.0,81,0.00,,,0.00,Wunderground v.1.15,2013-04-02 21:39:00,
2013-04-02 14:45:00,53.4,48.0,30.21,South,177,0.0,2.0,82,0.00,,,0.00,Wunderground v.1.15,2013-04-02 21:45:00,
2013-04-02 14:50:00,53.4,48.4,30.21,South,191,1.0,3.0,83,0.00,,,0.00,Wunderground v.1.15,2013-04-02 21:50:00,
2013-04-02 14:55:00,53.4,47.7,30.21,SSE,151,1.0,1.0,81,0.00,,,0.00,Wunderground v.1.15,2013-04-02 21:55:00,
2013-04-02 15:02:00,53.4,48.0,30.21,SSW,209,1.0,1.0,82,0.00,,,0.00,Wunderground v.1.15,2013-04-02 22:02:00,
2013-04-02 15:07:00,53.4,48.0,30.21,SW,218,1.0,2.0,82,0.00,,,0.00,Wunderground v.1.15,2013-04-02 22:07:00,
2013-04-02 15:13:00,53.6,48.6,30.21,SW,229,1.0,3.0,83,0.00,,,0.00,Wunderground v.1.15,2013-04-02 22:13:00,
2013-04-02 15:18:00,53.6,48.2,30.21,SW,230,2.0,5.0,82,0.00,,,0.00,Wunderground v.1.15,2013-04-02 22:18:00,
2013-04-02 15:24:00,53.6,47.9,30.21,SW,214,1.0,3.0,81,0.00,,,0.00,Wunderground v.1.15,2013-04-02 22:24:00,
2013-04-02 15:29:00,53.6,48.2,30.21,SW,214,1.0,3.0,82,0.00,,,0.00,Wunderground v.1.15,2013-04-02 22:29:00,
2013-04-02 15:35:00,53.8,48.8,30.20,SW,215,1.0,3.0,83,0.00,,,0.00,Wunderground v.1.15,2013-04-02 22:35:00,
2013-04-02 15:42:00,53.9,48.2,30.21,South,183,1.0,1.0,81,0.00,,,0.00,Wunderground v.1.15,2013-04-02 22:42:00,
2013-04-02 15:47:00,53.9,48.2,30.20,SSW,205,1.0,3.0,81,0.00,,,0.00,Wunderground v.1.15,2013-04-02 22:47:00,
2013-04-02 15:54:00,53.9,48.2,30.20,SSW,206,1.0,1.0,81,0.00,,,0.00,Wunderground v.1.15,2013-04-02 22:54:00,
2013-04-02 16:02:00,53.9,47.9,30.20,SSE,167,1.0,1.0,80,0.00,,,0.00,Wunderground v.1.15,2013-04-02 23:02:00,
2013-04-02 16:07:00,53.7,48.0,30.20,SSE,167,1.0,5.0,81,0.00,,,0.00,Wunderground v.1.15,2013-04-02 23:07:00,
2013-04-02 16:12:00,53.6,47.9,30.20,South,170,2.0,2.0,81,0.00,,,0.00,Wunderground v.1.15,2013-04-02 23:12:00,
2013-04-02 16:17:00,53.6,47.9,30.20,South,188,1.0,3.0,81,0.00,,,0.00,Wunderground v.1.15,2013-04-02 23:17:00,
2013-04-02 16:22:00,53.6,48.2,30.20,South,171,1.0,2.0,82,0.00,,,0.00,Wunderground v.1.15,2013-04-02 23:22:00,
2013-04-02 16:28:00,53.7,48.3,30.19,East,101,1.0,4.0,82,0.00,,,0.00,Wunderground v.1.15,2013-04-02 23:28:00,
2013-04-02 16:33:00,53.7,48.3,30.19,SSE,154,1.0,1.0,82,0.00,,,0.00,Wunderground v.1.15,2013-04-02 23:33:00,
2013-04-02 16:39:00,53.7,48.0,30.19,ESE,104,1.0,4.0,81,0.00,,,0.00,Wunderground v.1.15,2013-04-02 23:39:00,
2013-04-02 16:44:00,53.8,48.4,30.19,ESE,104,0.0,0.0,82,0.00,,,0.00,Wunderground v.1.15,2013-04-02 23:44:00,
2013-04-02 16:49:00,53.9,47.9,30.19,South,190,0.0,2.0,80,0.00,,,0.00,Wunderground v.1.15,2013-04-02 23:49:00,
2013-04-02 16:55:00,54.1,48.4,30.19,SW,235,1.0,4.0,81,0.00,,,0.00,Wunderground v.1.15,2013-04-02 23:55:00,
2013-04-02 17:02:00,54.4,48.7,30.19,SW,234,2.0,2.0,81,0.00,,,0.00,Wunderground v.1.15,2013-04-03 00:02:00,
2013-04-02 17:07:00,54.6,48.6,30.19,SW,234,1.0,2.0,80,0.00,,,0.00,Wunderground v.1.15,2013-04-03 00:07:00,
2013-04-02 17:12:00,54.6,48.2,30.19,SW,234,1.0,2.0,79,0.00,,,0.00,Wunderground v.1.15,2013-04-03 00:12:00,
2013-04-02 17:18:00,54.7,48.3,30.19,SW,234,1.0,2.0,79,0.00,,,0.00,Wunderground v.1.15,2013-04-03 00:18:00,
2013-04-02 17:23:00,54.6,47.9,30.19,SW,234,0.0,0.0,78,0.00,,,0.00,Wunderground v.1.15,2013-04-03 00:23:00,
2013-04-02 17:29:00,54.6,48.2,30.19,SW,234,0.0,0.0,79,0.00,,,0.00,Wunderground v.1.15,2013-04-03 00:29:00,
2013-04-02 17:35:00,54.5,48.1,30.18,SW,234,0.0,3.0,79,0.00,,,0.00,Wunderground v.1.15,2013-04-03 00:35:00,
2013-04-02 17:40:00,54.5,48.1,30.18,SW,234,0.0,3.0,79,0.00,,,0.00,Wunderground v.1.15,2013-04-03 00:40:00,
2013-04-02 17:45:00,54.5,48.8,30.18,SW,234,0.0,0.0,81,0.00,,,0.00,Wunderground v.1.15,2013-04-03 00:45:00,
2013-04-02 17:51:00,54.5,48.1,30.18,SW,234,0.0,2.0,79,0.00,,,0.00,Wunderground v.1.15,2013-04-03 00:51:00,
2013-04-02 17:56:00,54.4,48.4,30.18,SW,234,0.0,2.0,80,0.00,,,0.00,Wunderground v.1.15,2013-04-03 00:56:00,
2013-04-02 18:02:00,54.4,48.7,30.18,SW,234,0.0,0.0,81,0.00,,,0.00,Wunderground v.1.15,2013-04-03 01:02:00,
2013-04-02 18:07:00,54.4,48.0,30.18,SW,234,0.0,0.0,79,0.00,,,0.00,Wunderground v.1.15,2013-04-03 01:07:00,
2013-04-02 18:12:00,54.3,48.3,30.18,SW,234,0.0,0.0,80,0.00,,,0.00,Wunderground v.1.15,2013-04-03 01:12:00,
2013-04-02 18:18:00,54.3,48.3,30.18,SW,234,0.0,3.0,80,0.00,,,0.00,Wunderground v.1.15,2013-04-03 01:18:00,
2013-04-02 18:23:00,54.3,48.3,30.17,WSW,250,0.0,0.0,80,0.00,,,0.00,Wunderground v.1.15,2013-04-03 01:23:00,
2013-04-02 18:29:00,54.3,47.9,30.17,WNW,300,0.0,1.0,79,0.00,,,0.00,Wunderground v.1.15,2013-04-03 01:29:00,
2013-04-02 18:35:00,54.2,48.2,30.17,WNW,300,0.0,0.0,80,0.00,,,0.00,Wunderground v.1.15,2013-04-03 01:35:00,
2013-04-02 18:41:00,54.1,48.4,30.17,WNW,300,0.0,0.0,81,0.00,,,0.00,Wunderground v.1.15,2013-04-03 01:41:00,
2013-04-02 18:47:00,54.0,48.6,30.17,WNW,300,0.0,0.0,82,0.00,,,0.00,Wunderground v.1.15,2013-04-03 01:47:00,
2013-04-02 18:52:00,53.9,48.5,30.17,WNW,300,0.0,0.0,82,0.00,,,0.00,Wunderground v.1.15,2013-04-03 01:52:00,
2013-04-02 18:57:00,53.8,48.4,30.17,WNW,300,0.0,0.0,82,0.00,,,0.00,Wunderground v.1.15,2013-04-03 01:57:00,
2013-04-02 19:02:00,53.7,48.3,30.17,WNW,300,0.0,0.0,82,0.00,,,0.00,Wunderground v.1.15,2013-04-03 02:02:00,
2013-04-02 19:09:00,53.5,48.1,30.17,WNW,300,0.0,0.0,82,0.00,,,0.00,Wunderground v.1.15,2013-04-03 02:09:00,
2013-04-02 19:14:00,53.5,48.5,30.17,WNW,300,0.0,0.0,83,0.00,,,0.00,Wunderground v.1.15,2013-04-03 02:14:00,
2013-04-02 19:19:00,53.4,48.4,30.17,WNW,300,0.0,0.0,83,0.00,,,0.00,Wunderground v.1.15,2013-04-03 02:19:00,
2013-04-02 19:24:00,53.3,48.6,30.17,WNW,300,0.0,0.0,84,0.00,,,0.00,Wunderground v.1.15,2013-04-03 02:24:00,
2013-04-02 19:30:00,53.2,48.5,30.17,WNW,300,0.0,0.0,84,0.00,,,0.00,Wunderground v.1.15,2013-04-03 02:30:00,
2013-04-02 19:37:00,53.1,48.4,30.16,WNW,300,0.0,0.0,84,0.00,,,0.00,Wunderground v.1.15,2013-04-03 02:37:00,
2013-04-02 19:42:00,52.9,48.5,30.17,WNW,300,0.0,0.0,85,0.00,,,0.00,Wunderground v.1.15,2013-04-03 02:42:00,
2013-04-02 19:47:00,52.7,48.3,30.17,WNW,300,0.0,0.0,85,0.00,,,0.00,Wunderground v.1.15,2013-04-03 02:47:00,
2013-04-02 19:53:00,52.6,48.5,30.17,WNW,300,0.0,0.0,86,0.00,,,0.00,Wunderground v.1.15,2013-04-03 02:53:00,
2013-04-02 19:58:00,52.4,48.3,30.17,WNW,300,0.0,0.0,86,0.00,,,0.00,Wunderground v.1.15,2013-04-03 02:58:00,
2013-04-02 20:03:00,52.3,48.2,30.17,WNW,300,0.0,0.0,86,0.00,,,0.00,Wunderground v.1.15,2013-04-03 03:03:00,
2013-04-02 20:10:00,52.2,48.4,30.17,WNW,300,0.0,0.0,87,0.00,,,0.00,Wunderground v.1.15,2013-04-03 03:10:00,
2013-04-02 20:15:00,52.0,48.3,30.17,WNW,300,0.0,0.0,87,0.00,,,0.00,Wunderground v.1.15,2013-04-03 03:15:00,
2013-04-02 20:22:00,51.8,48.1,30.18,WNW,300,0.0,0.0,87,0.00,,,0.00,Wunderground v.1.15,2013-04-03 03:22:00,
2013-04-02 20:27:00,51.7,48.0,30.18,WNW,300,0.0,0.0,87,0.00,,,0.00,Wunderground v.1.15,2013-04-03 03:27:00,
2013-04-02 20:32:00,51.6,48.2,30.18,WNW,300,0.0,0.0,88,0.00,,,0.00,Wunderground v.1.15,2013-04-03 03:32:00,
2013-04-02 20:38:00,51.4,48.0,30.18,North,351,0.0,1.0,88,0.00,,,0.00,Wunderground v.1.15,2013-04-03 03:38:00,
2013-04-02 20:44:00,51.2,48.1,30.18,North,355,0.0,0.0,89,0.00,,,0.00,Wunderground v.1.15,2013-04-03 03:44:00,
2013-04-02 20:49:00,51.0,47.9,30.18,North,355,0.0,0.0,89,0.00,,,0.00,Wunderground v.1.15,2013-04-03 03:49:00,
2013-04-02 20:55:00,50.8,47.7,30.19,North,355,0.0,0.0,89,0.00,,,0.00,Wunderground v.1.15,2013-04-03 03:55:00,
2013-04-02 21:00:00,50.6,47.8,30.19,North,355,0.0,0.0,90,0.00,,,0.00,Wunderground v.1.15,2013-04-03 04:00:00,
2013-04-02 21:02:00,50.5,47.7,30.19,North,355,0.0,0.0,90,0.00,,,0.00,Wunderground v.1.15,2013-04-03 04:02:00,
2013-04-02 21:04:00,50.5,47.7,30.19,North,355,0.0,0.0,90,0.00,,,0.00,Wunderground v.1.15,2013-04-03 04:04:00,
2013-04-02 21:08:00,50.3,47.5,30.19,North,355,0.0,0.0,90,0.00,,,0.00,Wunderground v.1.15,2013-04-03 04:08:00,
2013-04-02 21:13:00,50.2,47.4,30.19,North,355,0.0,0.0,90,0.00,,,0.00,Wunderground v.1.15,2013-04-03 04:13:00,
2013-04-02 21:19:00,50.1,47.6,30.19,North,355,0.0,0.0,91,0.00,,,0.00,Wunderground v.1.15,2013-04-03 04:19:00,
2013-04-02 21:25:00,50.0,47.5,30.19,North,355,0.0,0.0,91,0.00,,,0.00,Wunderground v.1.15,2013-04-03 04:25:00,
2013-04-02 21:30:00,49.9,47.7,30.19,North,355,0.0,0.0,92,0.00,,,0.00,Wunderground v.1.15,2013-04-03 04:30:00,
2013-04-02 21:37:00,49.9,47.7,30.19,North,355,0.0,0.0,92,0.00,,,0.00,Wunderground v.1.15,2013-04-03 04:37:00,
2013-04-02 21:42:00,49.9,47.7,30.19,North,355,0.0,0.0,92,0.00,,,0.00,Wunderground v.1.15,2013-04-03 04:42:00,
2013-04-02 21:48:00,49.9,47.7,30.19,North,355,0.0,0.0,92,0.00,,,0.00,Wunderground v.1.15,2013-04-03 04:48:00,
2013-04-02 21:53:00,49.9,47.7,30.19,North,355,0.0,0.0,92,0.00,,,0.00,Wunderground v.1.15,2013-04-03 04:53:00,
2013-04-02 21:59:00,49.8,47.6,30.19,North,355,0.0,0.0,92,0.00,,,0.00,Wunderground v.1.15,2013-04-03 04:59:00,
2013-04-02 22:04:00,49.8,47.9,30.19,North,355,0.0,2.0,93,0.00,,,0.00,Wunderground v.1.15,2013-04-03 05:04:00,
2013-04-02 22:10:00,49.9,48.0,30.19,North,355,0.0,2.0,93,0.00,,,0.00,Wunderground v.1.15,2013-04-03 05:10:00,
2013-04-02 22:15:00,49.9,48.0,30.19,North,355,0.0,0.0,93,0.00,,,0.00,Wunderground v.1.15,2013-04-03 05:15:00,
2013-04-02 22:20:00,49.9,48.0,30.19,North,355,0.0,0.0,93,0.00,,,0.00,Wunderground v.1.15,2013-04-03 05:20:00,
2013-04-02 22:26:00,49.9,48.0,30.19,North,355,0.0,0.0,93,0.00,,,0.00,Wunderground v.1.15,2013-04-03 05:26:00,
2013-04-02 22:31:00,49.9,48.0,30.19,North,355,0.0,0.0,93,0.00,,,0.00,Wunderground v.1.15,2013-04-03 05:31:00,
2013-04-02 22:36:00,49.9,48.0,30.19,North,355,0.0,0.0,93,0.00,,,0.00,Wunderground v.1.15,2013-04-03 05:36:00,
2013-04-02 22:42:00,49.9,48.0,30.19,North,355,0.0,0.0,93,0.00,,,0.00,Wunderground v.1.15,2013-04-03 05:42:00,
2013-04-02 22:47:00,49.9,48.0,30.19,North,355,0.0,1.0,93,0.00,,,0.00,Wunderground v.1.15,2013-04-03 05:47:00,
2013-04-02 22:52:00,49.9,47.7,30.19,North,355,0.0,0.0,92,0.00,,,0.00,Wunderground v.1.15,2013-04-03 05:52:00,
2013-04-02 22:58:00,49.9,47.7,30.19,North,355,0.0,0.0,92,0.00,,,0.00,Wunderground v.1.15,2013-04-03 05:58:00,
2013-04-02 23:03:00,49.9,47.7,30.19,North,355,0.0,0.0,92,0.00,,,0.00,Wunderground v.1.15,2013-04-03 06:03:00,
2013-04-02 23:08:00,49.9,47.4,30.19,North,355,0.0,0.0,91,0.00,,,0.00,Wunderground v.1.15,2013-04-03 06:08:00,
2013-04-02 23:14:00,49.8,47.3,30.19,North,355,0.0,0.0,91,0.00,,,0.00,Wunderground v.1.15,2013-04-03 06:14:00,
2013-04-02 23:19:00,49.7,47.2,30.19,North,355,0.0,0.0,91,0.00,,,0.00,Wunderground v.1.15,2013-04-03 06:19:00,
2013-04-02 23:24:00,49.5,47.0,30.19,North,355,0.0,2.0,91,0.00,,,0.00,Wunderground v.1.15,2013-04-03 06:24:00,
2013-04-02 23:29:00,49.3,47.1,30.19,North,355,0.0,2.0,92,0.00,,,0.00,Wunderground v.1.15,2013-04-03 06:29:00,
2013-04-02 23:35:00,49.1,46.9,30.19,North,355,0.0,0.0,92,0.00,,,0.00,Wunderground v.1.15,2013-04-03 06:35:00,
2013-04-02 23:40:00,49.1,46.9,30.19,North,355,0.0,0.0,92,0.00,,,0.00,Wunderground v.1.15,2013-04-03 06:40:00,
2013-04-02 23:45:00,49.0,46.8,30.19,North,355,0.0,0.0,92,0.00,,,0.00,Wunderground v.1.15,2013-04-03 06:45:00,
2013-04-02 23:52:00,48.8,46.6,30.19,North,355,0.0,0.0,92,0.00,,,0.00,Wunderground v.1.15,2013-04-03 06:52:00,
2013-04-02 23:57:00,48.7,46.8,30.19,North,355,0.0,0.0,93,0.00,,,0.00,Wunderground v.1.15,2013-04-03 06:57:00,